Regional Weather Roundup
Issued by NWS

Home | Current Version | Previous Version | Text Only | Print | Product List | Glossary Off
Versions: 1 2 3 4 5 6 7 8 9 10 11 12 13 14 15 16 17 18 19 20 21 22 23 24 25 26 27 28 29 30 31 32 33 34 35 36 37 38 39 40 41 42 43 44 45 46 47 48 49 50

391
ASUS44 KJAN 260803
RWRMS

MISSISSIPPI HOURLY WEATHER ROUNDUP
NATIONAL WEATHER SERVICE JACKSON MS
300 AM CDT THU MAR 26 2015

NOTE: "FAIR: INDICATES FEW OR NO CLOUDS BELOW 12,000 FEET WITH NO
SIGNIFICANT WEATHER AND/OR OBSTRUCTIONS TO VISIBILITY.

MSZ001>002-007>008-010>013-018>021-025>028-034>036-260900-
NORTHWEST MISSISSIPPI

CITY           SKY/WX    TMP DP  RH WIND       PRES   REMARKS
CLARKSDALE     MOCLDY    63  59  88 CALM      29.93R
CLEVELAND      FAIR      63  58  84 S9        29.88R
GREENWOOD      CLEAR     62  54  74 S10       29.88F
GREENVILLE     CLEAR     62  55  77 S10       29.86F
OLIVE BRANCH   MOCLDY    61  57  88 CALM      29.89F
OXFORD         FAIR      63  55  77 S7        29.91S
TUNICA         PTSUNNY   59  55  88 S6        29.90F
$$

MSZ003>006-009-014>017-022>024-029>033-037>039-260900-
NORTHEAST MISSISSIPPI

CITY           SKY/WX    TMP DP  RH WIND       PRES   REMARKS
COLUMBUS AFB   PTCLDY    62  57  83 S6        29.93F
CORINTH        FAIR      64  55  72 SW6       29.89R
GOLDN TRIANGLE PTCLDY    61  55  82 S7        29.93F
STARKVILLE     FAIR      59  55  88 S3        29.94S
TUPELO         CLEAR     63  55  75 SW10      29.89F
$$

MSZ040-058-260900-
CENTRAL MISSISSIPPI

CITY           SKY/WX    TMP DP  RH WIND       PRES   REMARKS
JACKSON INTL   PTCLDY    61  57  87 S7        29.92F
JACKSON HAWKNS PTCLDY    60  56  86 SE7       29.92F
MERIDIAN KEY   PTCLDY    56  55  97 CALM      29.96F
MERIDIAN NAS   NOT AVBL
RAYMOND        FAIR      59  54  82 MISG      29.91F
VICKSBURG      MOCLDY    61  56  83 CALM      29.91F
$$

MSZ059>079-260900-
SOUTH MISSISSIPPI

CITY           SKY/WX    TMP DP  RH WIND       PRES   REMARKS
BROOKHAVEN       N/A     61  61 100 CALM      29.94F
HATTIESBURG    CLOUDY    61  59  93 CALM      29.96S
MCCOMB         PTCLDY    58  57  97 SE3       29.92F
NATCHEZ        MOCLDY    61  54  77 CALM      29.91F
PINE BELT      MOCLDY    59  55  88 CALM      29.96F
$$

MSZ080>082-260900-
COASTAL MISSISSIPPI

CITY           SKY/WX    TMP DP  RH WIND       PRES   REMARKS
BILOXI         MOCLDY    69  66  91 S6        29.93F
PASCAGOULA     MOCLDY    60  59  96 CALM      29.94F FOG
GULFPORT       MOCLDY    67  65  93 SE3       29.93F
$$



USA.gov is the U.S. government's official web portal to all federal, state and local government web resources and services.